CZ-6A DEB

Satellite information

Favourite Embed

Satellite Type and Status

DEBRISIN ORBIT

Key statistics

Satellite CZ-6A DEB at a glance.

Uptime

1129

Days in orbit

Revolutions

≈ 14.5

Per day

Orbit

SSO

Sun Synchronous Orbit

Inclination

98.8

Latest

Satellite identification and parameters

Extended collection of information and parameters for CZ-6A DEB.

Object identification

Identified? True

Debris? True

Object name: CZ-6A DEB

International designator: 2022-151J

Object number (NORAD): 54267

Object ID (CCSDS): 54267

Country: PEOPLES REPUBLIC OF CHINA (PRC)

Current information (Y/N): Y

RCS size: SMALL

Orbital parameters

Period: 99.58 minutes

Inclination: 98.8176 deg

SMA: 7116.642 km

Apoapsis: 802.339 km

Periapsis: 674.674 km

RAAN: 49.767 deg

Eccentricy: 0.00896945

Argument of periapsis: 116.397 deg

Mean anomaly: 244.6461 deg

Mean motion: 14.4607269 rev/day

Mean motion (dot): 0.00003575 rev/day2

B* drag term: 0.00096631128 1/REarth

Two-line elements (TLE)

Creation date: Dec. 12, 2025, 10:14 a.m.

Reference frame: TEME

Reference center: EARTH

Epoch: Dec. 12, 2025, 2:52 a.m. UTC

TLE line 0: 0 CZ-6A DEB

TLE line 1: 1 54267U 22151J 25346.11967662 .00003575 00000-0 96631-3 0 9991

TLE line 2: 2 54267 98.8176 49.7670 0089694 116.3970 244.6461 14.46072690162152

Live tracking on map

Real-time ground track for satellite CZ-6A DEB.

In-orbit conjunctions

A list of the most updated potential collisions computed for object CZ-6A DEB.

Target Orbit TCA Probability of collision Miss distance Type
NOAA 16 DEB SSO 2025-10-21 17:14:42 0.0001022263 217.0 (m) DEBRIS
IRIDIUM 33 DEB LEO 2025-07-30 09:30:25 0.001891204 37.0 (m) DEBRIS
CZ-6A DEB LEO 2025-06-03 12:18:38 0.0002892713 41.0 (m) DEBRIS

Associated space launch

Chinese satellite reported for atmospheric/ocean/environmental/spatial parameter research purposes, details TBD.

CZ-6A DEB was lifted into orbit during the mission ‘Long March 6A | Yunhai 3’, on board a Long March 6A space rocket.

The launch took place on Nov. 11, 2022, 10:52 p.m. from Launch Complex 9A.

For more information about the launch, click the button.

Launch to space Long March 6A | Yunhai 3
Long March 6A | Yunhai 3

Agency: N/A

Status: Launch Successful

Launch date: Nov. 11, 2022, 10:52 p.m. UTC

Rocket: Long March 6A

Launch pad: Launch Complex 9A

Location: Taiyuan Satellite Launch Center, People's Republic of China

...

Latest news about this satellite

There are no fresh news available about this satellite. Check back as we update our databases every day.


Newsletter sign-up

Weekly statistics, charts and insights to help you stay on top of the space industry.